Location: Orange Harbor Mobile Home Park
(26.6923°N, 81.7937°W)
Time: 23:20:55
(UTC+00:00)

Cosmos 2263 Rocket - Pass Details

Date: 19 September 2020
Orbit: 822 x 850 km, 71.0° (Epoch: 25 October)

Event Time Altitude Azimuth Distance (km) Brightness Sun altitude
Rises 00:30:08 0° 227° (SW) 3,342 5.9 -14.8°
Reaches altitude 10° 00:32:57 10° 240° (WSW) 2,412 5.3 -15.4°
Maximum altitude 00:37:28 26° 295° (WNW) 1,579 4.5 -16.4°
Drops below altitude 10° 00:42:02 10° 351° (N) 2,426 4.8 -17.4°
Sets 00:44:54 0° 4° (N) 3,366 5.4 -18.0°
